Location: Esp�n
(42.4593°N, 0.2047°W)
Time: 22:36:31
(UTC+00:00)

STARLINK-70 - Pass Details

Date: 08 October 2020
Orbit: 441 x 442 km, 53.0° (Epoch: 26 October)

Event Time Altitude Azimuth Distance (km) Brightness Sun altitude
Exits shadow 03:08:26 10° 83° (E) 1,541 6.7 -32.8°
Drops below altitude 10° 03:08:29 10° 82° (E) 1,557 6.7 -32.8°
Sets 03:10:59 0° 65° (ENE) 2,431 8.0 -32.4°
